Location: Clayton (historical)
(34.0300°N, 118.0259°W)
Time: 01:02:46
(UTC+00:00)

Envisat - Pass Details

Date: 30 January 2021
Orbit: 764 x 766 km, 98.1° (Epoch: 06 March)

Event Time Altitude Azimuth Distance (km) Brightness Sun altitude
Rises 13:12:01 0° 18° (NNE) 3,235 6.4 -20.5°
Reaches altitude 10° 13:14:23 10° 23° (NNE) 2,305 5.6 -20.1°
Maximum altitude 13:19:21 53° 100° (E) 930 3.8 -19.0°
Drops below altitude 10° 13:24:17 10° 177° (S) 2,290 5.6 -18.0°
Sets 13:26:37 0° 182° (S) 3,212 6.3 -17.6°
